Regional Weather Roundup
Issued by NWS

Home | Current Version | Previous Version | Graphics & Text | Print | Product List | Glossary On
Versions: 1 2 3 4 5 6 7 8 9 10 11 12 13 14 15 16 17 18 19 20 21 22 23 24 25 26 27 28 29 30 31 32 33 34 35 36 37 38 39 40 41 42 43 44 45 46 47 48 49 50
000
ASUS45 KABQ 160410
RWRNM
NEW MEXICO REGIONAL WEATHER ROUNDUP
NATIONAL WEATHER SERVICE ALBUQUERQUE NM
1000 PM MDT SUN OCT 15 2017

NOTE: "FAIR" MEANS FEW OR NO CLOUDS BELOW 12,000 FEET AGL WITH NO
       SIGNIFICANT WEATHER OR OBSTRUCTIONS TO VISION.

      THIS PRODUCT IS RELEASED AS TWO VERSIONS.  ONE VERSION NEAR
      THE TOP OF THE HOUR CONTAINING PRELIMINARY DATA FROM ALBUQUERQUE
      AND OTHER STATIONS.  A FINAL VERSION WITH ADDITIONAL DATA IS
      ISSUED ABOUT 10 MINUTES AFTER THE HOUR.

NMZ501-503-504-510>518-160500-
NORTHWEST PLATEAU/NORTHCENTRAL MOUNTAINS

CITY           SKY/WX    TMP DP  RH WIND       PRES   REMARKS
FARMINGTON     FAIR      37   9  31 NE6       30.46R WCI  32
LOS ALAMOS     FAIR      51  18  27 S8        30.54R
SANTA FE       FAIR      46  25  43 CALM      30.50S
TAOS           FAIR      39  16  39 CALM      30.57R
ANGEL FIRE     FAIR      24  20  83 CALM      30.60R

$$
NMZ402-403-502-505>509-160500-
WESTCENTRAL MOUNTAINS/SOUTHWEST MOUNTAINS

CITY           SKY/WX    TMP DP  RH WIND       PRES   REMARKS
GALLUP         FAIR      35   7  31 CALM      30.49S
GRANTS         FAIR      37  15  40 CALM      30.53R
SILVER CITY    FAIR      52  25  35 E6        30.46R

$$
NMZ407-409-411-412-160500-
SOUTHERN DESERTS

CITY           SKY/WX    TMP DP  RH WIND       PRES   REMARKS
DEMING         FAIR      54  27  35 NE9       30.42R
LAS CRUCES     FAIR      57  24  28 SE5       30.44R
HOLLOMAN AFB   FAIR      61  27  28 S10       30.44R
ALAMOGORDO     FAIR      57  27  30 CALM      30.44R
T OR C         FAIR      56  22  26 W6        30.43R

$$
NMZ519>523-160500-
CENTRAL VALLEYS/CENTRAL HIGHLANDS

CITY           SKY/WX    TMP DP  RH WIND       PRES   REMARKS
ALBUQUERQUE    FAIR      56  26  31 NE5       30.47R
DOUBLE EAGLE   CLEAR     37  19  48 NW3       30.50R
MORIARTY ARPT  FAIR      40  29  65 NW3       30.53R
CLINES CORNERS FAIR      43  22  43 SW6       30.54S
BELEN          FAIR      46  25  44 NE3       30.46S
SOCORRO        FAIR      49  25  39 NW3       30.45R

$$
NMZ524>526-539-540-160500-
SOUTHCENTRAL MOUNTAINS

CITY           SKY/WX    TMP DP  RH WIND       PRES   REMARKS
RUIDOSO        FAIR      46  27  46 CALM      30.57R

$$
NMZ527>531-160500-
NORTHEAST HIGHLANDS/NORTHEAST PLAINS

CITY           SKY/WX    TMP DP  RH WIND       PRES   REMARKS
LAS VEGAS      FAIR      38  25  59 SW6       30.53R WCI  33
RATON          FAIR      38  26  62 W5        30.51R WCI  34
CLAYTON        FAIR      42  28  57 SW9       30.47R

$$
NMZ532>537-160500-
EASTCENTRAL PLAINS

CITY           SKY/WX    TMP DP  RH WIND       PRES   REMARKS
SANTA ROSA     FAIR      46  32  59 S7        30.47S
TUCUMCARI      FAIR      49  34  56 SE5       30.45R
CANNON AFB     CLEAR     45  40  81 E3        30.49R
CLOVIS AIRPORT FAIR      46  37  71 SE5       30.49R HAZE

$$
NMZ028-029-538-160500-
SOUTHEAST PLAINS

CITY           SKY/WX    TMP DP  RH WIND       PRES   REMARKS
ROSWELL        FAIR      51  41  68 W5        30.46R
ARTESIA        FAIR      52  34  50 W7        30.47R
CARLSBAD       FAIR      51  38  60 CALM      30.45R
HOBBS          HAZE      50  30  46 E6        30.47R VSB 3/4


$$




USA.gov is the U.S. government's official web portal to all federal, state and local government web resources and services.